Location: Gebenbach
(49.5378°N, 11.8735°E)
Time: 03:25:49
(UTC+00:00)

Ariane Rocket - Pass Details

Date: 29 October 2020
Orbit: 759 x 771 km, 98.7° (Epoch: 27 November)

Event Time Altitude Azimuth Distance (km) Brightness Sun altitude
Exits shadow 17:53:40 28° 47° (NE) 1,423 4.0 -19.7°
Drops below altitude 10° 17:57:19 10° 3° (N) 2,324 5.5 -20.3°
Sets 17:59:53 0° 353° (N) 3,254 6.4 -20.7°
